Weather Roundup
Issued by NWS Chicago, IL

Home | Current Version | Previous Version | Text Only | Print | Product List | Glossary On
Versions: 1 2 3 4 5 6 7 8 9 10 11 12 13 14 15 16 17 18 19 20 21 22 23 24 25 26 27 28 29 30 31 32 33 34 35 36 37 38 39 40 41 42 43 44 45 46 47 48 49 50
000
NZUS59 KLOT 280210
HRRLOT

CHICAGO AREA WEATHER ROUNDUP
NATIONAL WEATHER SERVICE CHICAGO/ROMEOVILLE IL
800 PM CST SAT DEC 27 2014

NOTE: "FAIR" INDICATES FEW OR NO CLOUDS BELOW 12,000 FEET WITH NO
SIGNIFICANT WEATHER AND/OR OBSTRUCTIONS TO VISIBILITY.

* THESE STATIONS ARE NOT UNDER NWS QUALITY CONTROL. THEY ALSO MAY NOT
  REPORT WEATHER SUCH AS PRECIPITATION OR FOG.

ILZ005-006-012>014-019>023-280300-
NORTHEAST ILLINOIS

CITY           SKY/WX    TMP DP  RH WIND       PRES   REMARKS
OHARE          CLOUDY    34  25  69 W12       30.09R WCI  25
MIDWAY         CLOUDY    36  26  67 W12       30.10R
AURORA         CLOUDY    33  26  75 W10       30.11R WCI  25
LANSING*       CLOUDY    34  27  75 NW9       30.11S WCI  26
JOLIET*        CLOUDY    32  27  81 W7        30.12S WCI  26
WAUKEGAN       CLOUDY    34  25  69 W8G17     30.06R WCI  27
DUPAGE AIRPORT CLOUDY    32  25  75 W15       30.09R WCI  22
WHEELING       CLOUDY    34  25  69 NW9       30.11R WCI  27
KANKAKEE*      MOCLDY    32  29  88 W10       30.14R WCI  24
MORRIS*        MOCLDY    32  28  86 W12       30.12R WCI  23
LEWIS AIRPORT* CLOUDY    32  27  82 W12       30.12R WCI  23
NORTHERLY IS     N/A     35  26  70 W12         N/A  WCI  27
$$

WIZ051-052-058>065-066-070>072-280300-
SOUTHEAST WISCONSIN

CITY           SKY/WX    TMP DP  RH WIND       PRES   REMARKS
MILWAUKEE      MOCLDY    34  24  67 NW13      30.06F WCI  25
KENOSHA*       CLOUDY    34  27  75 NW9       30.06R WCI  27
RACINE*        CLOUDY    34  25  69 NW8       30.07S WCI  27
BURLINGTON     MOCLDY    30  26  83 W8        30.07R WCI  23
WAUKESHA       CLOUDY    30  27  86 W12       30.06F WCI  21
WEST BEND      CLOUDY    32  27  80 W13G18    30.05R WCI  22
$$

INZ001>003-010>013-019-020-280300-
NORTHWEST INDIANA

CITY           SKY/WX    TMP DP  RH WIND       PRES   REMARKS
GARY*          CLOUDY    36  23  60 W12G23    30.10R
MICHIGAN CITY* NOT AVBL
RENSSELAER*    NOT AVBL
VALPARAISO     CLOUDY    33  27  78 W9        30.09S WCI  25
$$

LMZ740>746-280300-
SOUTHERN LAKE MICHIGAN

STATION/POSITION TIME  SKY/WX   TEMP WIND        PRES    VSBY
                                AIR  DIR/SP/G
                 (UTC)          (F)  (DEG/KT/KT) (MB)    (MI)
HARRISON CRIB    0200            34  300/ 15/ 18   N/A
BURNHAM HARBOR   0200            35  250/ 11/ 15   N/A
CALUMET HARBOR   0200            35  270/  8/ 13 1017.7F
BURNS HARBOR     NOT AVBL
MICHIGAN CITY    0200            35  260/ 20/ 22   N/A
$$

ABBREVIATIONS USED IN REMARKS
   TC - TEMPERATURE IN CELSIUS
  WCI - WIND CHILL INDEX
   HX - HEAT INDEX
  VSB - VISIBILITY
$$


USA.gov is the U.S. government's official web portal to all federal, state and local government web resources and services.